Flag for Russia Weather past 2 weeks in Yekaterinburg, Russia

Now
54 °F

More clouds than sun.


Feels Like: 51 °F
Forecast: 42 / 59 °F
Wind: 8 mph from West

Location: Ekaterinburg

Current Time: Sep 21, 2014 at 8:35:49 PM

Latest Report: Sep 21, 2014 at 8:00 PM


Visibility: N/A

Pressure: 30.09 "Hg

Humidity: 88%

Dew point: 50 °F

Location of YekaterinburgLocation

Historic Weather in Yekaterinburg — Graph

°F

Yekaterinburg temperature yesterday

Maximum temperature yesterday: 52 °F (at 3:30 PM)
Minimum temperature yesterday: 48 °F (at 12:00 AM)
Average temperature yesterday: 50 °F

Past Weeks' High & Low Weather Summary

 TemperatureHumidityPressure
High70 °F (Sep 12, 5:00 PM)100% (Sep 7, 12:30 AM)30.30 "Hg (Sep 7, 12:30 AM)
Low27 °F (Sep 15, 6:30 AM)51% (Sep 15, 5:30 PM)29.65 "Hg (Sep 6, 7:00 PM)
Average46 °F90%30.01 "Hg
* Reported Sep 6 7:00 PM — Sep 21 7:30 PM, Yekaterinburg, Weather by CustomWeather, © 2014

Note: Actual official high and low records may vary slightly from our data, if they occured in-between our weather recording intervals... More about our weather records

Advertising

Yekaterinburg weather history for previous 24 hours

 ConditionsComfort  
Time TempWeatherWind HumidityBarometerVisibility
7:30 PM
Sep 21
55 °FMore clouds than sun.8 mph88%30.09 "HgN/A
7:00 PM55 °FOvercast.6 mph94%30.07 "Hg4 mi
6:30 PM55 °FOvercast.No wind94%30.07 "HgN/A
6:00 PM55 °FMore clouds than sun.1 mph94%30.07 "HgN/A
5:30 PM55 °FMore clouds than sun.3 mph88%30.07 "HgN/A
5:00 PM57 °FMore clouds than sun.6 mph82%30.07 "HgN/A
4:30 PM55 °FMore clouds than sun.6 mph94%30.09 "HgN/A
4:00 PM55 °FMore clouds than sun.8 mph94%30.09 "HgN/A
3:30 PM59 °FMore clouds than sun.10 mph77%30.09 "HgN/A
3:00 PM59 °FBroken clouds.10 mph82%30.09 "HgN/A
2:30 PM57 °FBroken clouds.8 mph82%30.09 "HgN/A
2:00 PM55 °FPartly sunny.6 mph88%30.09 "HgN/A
1:30 PM54 °FPartly sunny.8 mph94%30.09 "HgN/A
1:00 PM52 °FBroken clouds.8 mph94%30.09 "HgN/A
12:30 PM52 °FBroken clouds.10 mph100%30.09 "HgN/A
12:00 PM52 °FMostly cloudy.10 mph94%30.09 "HgN/A
11:30 AM52 °FMostly cloudy.13 mph100%30.09 "HgN/A
11:00 AM50 °FMore clouds than sun.10 mph100%30.09 "HgN/A
10:30 AM48 °FMore clouds than sun.6 mph100%30.09 "Hg4 mi
10:00 AM48 °FOvercast.8 mph94%30.09 "Hg4 mi
9:30 AM46 °FOvercast.8 mph93%30.09 "Hg4 mi
9:00 AM46 °FPartly sunny.10 mph100%30.09 "Hg4 mi
8:30 AM45 °FPassing clouds.8 mph100%30.09 "Hg4 mi
8:00 AM45 °FPassing clouds.8 mph100%30.09 "Hg4 mi
7:30 AM43 °FPassing clouds.8 mph100%30.09 "Hg4 mi
7:00 AM45 °FPassing clouds.3 mph100%30.07 "Hg4 mi
6:30 AM46 °FPassing clouds.3 mph100%30.07 "Hg4 mi
6:00 AM46 °FPassing clouds.3 mph100%30.07 "Hg4 mi
5:30 AM46 °FPartly cloudy.1 mph100%30.07 "Hg4 mi
5:00 AM46 °FMostly cloudy.3 mph100%30.07 "Hg4 mi
4:30 AM46 °FFog.3 mph100%30.07 "Hg3 mi
4:00 AM48 °FMostly cloudy.3 mph94%30.07 "Hg4 mi
3:30 AM46 °FFog.3 mph100%30.07 "Hg3 mi
2:30 AM46 °FMostly cloudy.6 mph100%30.07 "Hg4 mi
2:00 AM45 °FPartly cloudy.3 mph100%30.07 "Hg4 mi
1:30 AM45 °FPassing clouds.3 mph100%30.07 "Hg4 mi
1:00 AM46 °FPassing clouds.8 mph100%30.07 "Hg4 mi
12:30 AM46 °FPassing clouds.6 mph100%30.07 "Hg4 mi
12:00 AM48 °FClear.8 mph100%30.09 "Hg10 mi
11:30 PM
Sep 20
48 °FClear.8 mph94%30.09 "Hg10 mi
Weather by CustomWeather, © 2014

See weather overviewHow to use our weather pages